Erie, CO

4:18 AM MDT on May 27, 2017 (GMT -0600)
Erie Municipal Airport

Weather History for KEIK - March, 2012

Change the Weather History Date:

Friday, March 30, 2012

  Actual Average (KBJC) Record (KBJC)
Temperature  
Mean Temperature 57 °F -  
Max Temperature 77 °F 53 °F 78 °F (1986)
Min Temperature 37 °F 32 °F 13 °F (1987)
Degree Days  
Heating Degree Days 8    
Growing Degree Days 7 (Base 50)    
Moisture  
Dew Point 20 °F    
Average Humidity 24    
Maximum Humidity 56    
Minimum Humidity 12    
Precipitation  
Precipitation 0.00 in - - ()
Sea Level Pressure  
Sea Level Pressure 29.88 in    
Wind  
Wind Speed 6 mph (SSW)    
Max Wind Speed 15 mph    
Max Gust Speed 22 mph    
Visibility 10 miles    
Events      
Averages and records for this station are not official NWS values.
T = Trace of Precipitation, MM = Missing Value Source: NWS Daily Summary

Daily Weather History Graph

Daily Weather History Graph

Search for Another Location

Airport or City:

Trip Planner

Search our weather history database for the weather conditions in past years. The results will help you decide how hot, cold, wet, or windy it might be!

Date:

Astronomy

Mar. 30, 2012 Rise Set
Actual Time 6:46 AM MDT 7:23 PM MDT
Civil Twilight 6:19 AM MDT 7:50 PM MDT
Nautical Twilight 5:47 AM MDT 8:22 PM MDT
Astronomical Twilight 5:14 AM MDT 8:55 PM MDT
Moon 11:54 AM MDT (3/30) 2:01 AM MDT (3/30)
Length of Visible Light 13h 31m
Length of Day
12h 36m
Waxing Crescent, 49% of the Moon is Illuminated
Mar 30
Waxing Crescent
Mar 30
First Quarter
Apr 6
Full
Apr 13
Last Quarter
Apr 21
New

Hourly Weather History & Observations

Time (MDT) Temp. Windchill Dew Point Humidity Pressure Visibility Wind Dir Wind Speed Gust Speed Precip Events Conditions
12:15 AM 59.0 °F - 19.4 °F 22% 29.90 in 10.0 mi West 13.8 mph 19.6 mph N/A   Scattered Clouds
12:35 AM 59.0 °F - 19.4 °F 22% 29.90 in 10.0 mi West 5.8 mph - N/A   Clear
12:55 AM 59.0 °F - 19.4 °F 22% 29.90 in 10.0 mi SW 4.6 mph - N/A   Clear
1:15 AM 62.6 °F - 14.0 °F 15% 29.88 in 10.0 mi SW 15.0 mph 21.9 mph N/A   Clear
1:35 AM 60.8 °F - 14.0 °F 16% 29.90 in 10.0 mi West 6.9 mph 18.4 mph N/A   Clear
1:55 AM 57.2 °F - 17.6 °F 21% 29.89 in 10.0 mi West 8.1 mph - N/A   Clear
2:15 AM 53.6 °F - 19.4 °F 26% 29.89 in 10.0 mi SW 4.6 mph - N/A   Clear
2:35 AM 50.0 °F - 19.4 °F 30% 29.88 in 10.0 mi Calm Calm - N/A   Clear
2:55 AM 44.6 °F - 21.2 °F 39% 29.87 in 10.0 mi Calm Calm - N/A   Clear
3:15 AM 44.6 °F - 19.4 °F 37% 29.87 in 10.0 mi Calm Calm - N/A   Clear
3:35 AM 46.4 °F 45.2 °F 19.4 °F 34% 29.87 in 10.0 mi WSW 3.5 mph - N/A   Clear
3:55 AM 39.2 °F - 21.2 °F 49% 29.88 in 10.0 mi Calm Calm - N/A   Clear
4:15 AM 42.8 °F - 21.2 °F 42% 29.87 in 10.0 mi Calm Calm - N/A   Clear
4:35 AM 42.8 °F 40.1 °F 21.2 °F 42% 29.88 in 10.0 mi East 4.6 mph - N/A   Clear
4:55 AM 46.4 °F 42.4 °F 19.4 °F 34% 29.89 in 10.0 mi ENE 8.1 mph - N/A   Clear
5:15 AM 46.4 °F 45.2 °F 19.4 °F 34% 29.89 in 10.0 mi SSW 3.5 mph - N/A   Clear
5:35 AM 42.8 °F 40.1 °F 21.2 °F 42% 29.89 in 10.0 mi South 4.6 mph - N/A   Clear
5:55 AM 42.8 °F 40.1 °F 21.2 °F 42% 29.90 in 10.0 mi WSW 4.6 mph - N/A   Clear
6:15 AM 41.0 °F - 21.2 °F 45% 29.90 in 10.0 mi Calm Calm - N/A   Clear
6:35 AM 41.0 °F - 21.2 °F 45% 29.90 in 10.0 mi Calm Calm - N/A   Clear
6:55 AM 41.0 °F 38.0 °F 21.2 °F 45% 29.91 in 10.0 mi SSW 4.6 mph - N/A   Clear
7:15 AM 37.4 °F 34.9 °F 23.0 °F 56% 29.91 in 10.0 mi SE 3.5 mph - N/A   Clear
7:35 AM 42.8 °F 40.1 °F 23.0 °F 46% 29.91 in 10.0 mi South 4.6 mph - N/A   Clear
7:55 AM 48.2 °F - 23.0 °F 37% 29.92 in 10.0 mi NNW 5.8 mph - N/A   Clear
8:15 AM 51.8 °F - 23.0 °F 33% 29.93 in 10.0 mi Calm Calm - N/A   Clear
8:35 AM 55.4 °F - 23.0 °F 29% 29.92 in 10.0 mi WSW 4.6 mph - N/A   Clear
8:55 AM 59.0 °F - 21.2 °F 23% 29.92 in 10.0 mi SSW 4.6 mph - N/A   Clear
9:15 AM 62.6 °F - 21.2 °F 20% 29.92 in 10.0 mi WSW 3.5 mph - N/A   Clear
9:35 AM 62.6 °F - 23.0 °F 22% 29.92 in 10.0 mi SE 9.2 mph - N/A   Clear
9:55 AM 64.4 °F - 21.2 °F 19% 29.92 in 10.0 mi SSE 6.9 mph - N/A   Clear
10:35 AM 68.0 °F - 19.4 °F 16% 29.92 in 10.0 mi West 3.5 mph - N/A   Clear
10:55 AM 68.0 °F - 21.2 °F 17% 29.91 in 10.0 mi West 6.9 mph - N/A   Clear
11:15 AM 69.8 °F - 19.4 °F 15% 29.91 in 10.0 mi West 9.2 mph 20.7 mph N/A   Clear
11:35 AM 69.8 °F - 21.2 °F 16% 29.90 in 10.0 mi SW 5.8 mph - N/A   Clear
11:55 AM 69.8 °F - 19.4 °F 15% 29.90 in 10.0 mi Calm Calm - N/A   Clear
12:15 PM 69.8 °F - 19.4 °F 15% 29.89 in 10.0 mi WSW 8.1 mph - N/A   Clear
12:35 PM 71.6 °F - 19.4 °F 14% 29.87 in 10.0 mi SW 3.5 mph - N/A   Clear
12:55 PM 71.6 °F - 19.4 °F 14% 29.87 in 10.0 mi SSE 6.9 mph - N/A   Clear
1:15 PM 71.6 °F - 21.2 °F 15% 29.87 in 10.0 mi SE 5.8 mph - N/A   Clear
1:35 PM 71.6 °F - 21.2 °F 15% 29.85 in 10.0 mi Calm Calm - N/A   Clear
1:55 PM 73.4 °F - 19.4 °F 13% 29.85 in 10.0 mi ESE 4.6 mph - N/A   Clear
2:15 PM 73.4 °F - 17.6 °F 12% 29.84 in 10.0 mi South 5.8 mph - N/A   Clear
2:35 PM 73.4 °F - 19.4 °F 13% 29.83 in 10.0 mi WSW 3.5 mph - N/A   Clear
2:55 PM 73.4 °F - 19.4 °F 13% 29.82 in 10.0 mi NW 11.5 mph 16.1 mph N/A   Clear
3:15 PM 75.2 °F - 19.4 °F 12% 29.81 in 10.0 mi West 10.4 mph - N/A   Clear
3:35 PM 73.4 °F - 19.4 °F 13% 29.82 in 10.0 mi SSE 6.9 mph - N/A   Clear
3:55 PM 73.4 °F - 19.4 °F 13% 29.82 in 10.0 mi ENE 4.6 mph - N/A   Clear
4:15 PM 73.4 °F - 19.4 °F 13% 29.82 in 10.0 mi South 6.9 mph - N/A   Clear
4:35 PM 75.2 °F - 19.4 °F 12% 29.81 in 10.0 mi ESE 6.9 mph - N/A   Clear
4:55 PM 73.4 °F - 19.4 °F 13% 29.81 in 10.0 mi SE 5.8 mph - N/A   Clear
5:15 PM 75.2 °F - 19.4 °F 12% 29.81 in 10.0 mi ESE 5.8 mph - N/A   Clear
5:35 PM 77.0 °F - 21.2 °F 12% 29.81 in 10.0 mi SE 9.2 mph - N/A   Clear
5:55 PM 71.6 °F - 19.4 °F 14% 29.81 in 10.0 mi ESE 4.6 mph - N/A   Clear
6:15 PM 71.6 °F - 21.2 °F 15% 29.82 in 10.0 mi NW 3.5 mph - N/A   Clear
6:35 PM 73.4 °F - 19.4 °F 13% 29.82 in 10.0 mi West 6.9 mph - N/A   Clear
6:55 PM 71.6 °F - 19.4 °F 14% 29.84 in 10.0 mi West 9.2 mph - N/A   Clear
7:15 PM 69.8 °F - 15.8 °F 13% 29.84 in 10.0 mi WNW 11.5 mph - N/A   Clear
7:35 PM 68.0 °F - 19.4 °F 16% 29.85 in 10.0 mi NNE 4.6 mph - N/A   Clear
7:55 PM 66.2 °F - 19.4 °F 17% 29.86 in 10.0 mi Calm Calm - N/A   Clear
8:15 PM 64.4 °F - 19.4 °F 18% 29.86 in 10.0 mi ENE 4.6 mph - N/A   Clear
8:35 PM 62.6 °F - 21.2 °F 20% 29.87 in 10.0 mi Calm Calm - N/A   Clear
8:55 PM 60.8 °F - 23.0 °F 23% 29.88 in 10.0 mi Calm Calm - N/A   Clear
9:15 PM 60.8 °F - 24.8 °F 25% 29.88 in 10.0 mi Calm Calm - N/A   Clear
9:35 PM 59.0 °F - 26.6 °F 29% 29.89 in 10.0 mi Calm Calm - N/A   Clear
9:55 PM 60.8 °F - 23.0 °F 23% 29.89 in 10.0 mi Calm Calm - N/A   Clear
10:15 PM 64.4 °F - 21.2 °F 19% 29.89 in 10.0 mi SSW 12.7 mph 24.2 mph N/A   Clear
10:35 PM 66.2 °F - 21.2 °F 18% 29.89 in 10.0 mi WSW 11.5 mph 17.3 mph N/A   Clear
10:55 PM 64.4 °F - 21.2 °F 19% 29.89 in 10.0 mi West 13.8 mph 20.7 mph N/A   Clear
11:15 PM 62.6 °F - 21.2 °F 20% 29.89 in 10.0 mi West 10.4 mph - N/A   Clear
11:35 PM 66.2 °F - 21.2 °F 18% 29.90 in 10.0 mi SW 8.1 mph 18.4 mph N/A   Clear
11:55 PM 64.4 °F - 21.2 °F 19% 29.90 in 10.0 mi WSW 12.7 mph 20.7 mph N/A   Clear